| time (UTC) | temp C | wind direction | speed KPH | gust KPH | rain 1hr cm | rain 24hr cm | rain mn cm | humidity % | barometer mb |
| 20260505200101 | 12 | 299 | 11.3 | 19.3 | 0.00 | 0.00 | 0.00 | 64 | 1013.1 |
| 20260505194548 | 12 | 329 | 8.0 | 19.3 | 0.00 | 0.00 | 0.00 | 64 | 1012.9 |
| 20260505193040 | 12 | 300 | 6.4 | 19.3 | 0.00 | 0.00 | 0.00 | 63 | 1012.8 |
| 20260505191536 | 13 | 307 | 8.0 | 16.1 | 0.00 | 0.00 | 0.00 | 64 | 1012.7 |
| 20260505190005 | 13 | 310 | 6.4 | 16.1 | 0.00 | 0.00 | 0.00 | 63 | 1012.7 |
| 20260505184508 | 13 | 21 | 8.0 | 14.5 | 0.00 | 0.00 | 0.00 | 63 | 1012.7 |
| 20260505183102 | 13 | 298 | 6.4 | 17.7 | 0.00 | 0.00 | 0.00 | 62 | 1012.6 |
| 20260505181556 | 13 | 313 | 6.4 | 19.3 | 0.00 | 0.00 | 0.00 | 63 | 1012.6 |
| 20260505180035 | 13 | 285 | 9.7 | 17.7 | 0.00 | 0.00 | 0.00 | 63 | 1012.7 |
| 20260505174536 | 13 | 338 | 4.8 | 19.3 | 0.00 | 0.00 | 0.00 | 62 | 1012.6 |
| 20260505173022 | 13 | 275 | 6.4 | 17.7 | 0.00 | 0.00 | 0.00 | 62 | 1012.6 |
| 20260505171528 | 14 | 321 | 8.0 | 17.7 | 0.00 | 0.00 | 0.00 | 62 | 1012.7 |
| 20260505170105 | 14 | 297 | 4.8 | 17.7 | 0.00 | 0.00 | 0.00 | 61 | 1012.7 |
| 20260505164632 | 14 | 320 | 4.8 | 16.1 | 0.00 | 0.00 | 0.00 | 61 | 1012.8 |
| 20260505163051 | 14 | 309 | 4.8 | 12.9 | 0.00 | 0.00 | 0.00 | 61 | 1012.7 |
| 20260505161545 | 14 | 306 | 6.4 | 16.1 | 0.00 | 0.00 | 0.00 | 61 | 1012.7 |
| 20260505153006 | 15 | 1 | 9.7 | 25.7 | 0.00 | 0.00 | 0.00 | 62 | 1013.0 |
| 20260505151611 | 15 | 17 | 9.7 | 19.3 | 0.00 | 0.00 | 0.00 | 62 | 1013.1 |
| 20260505124517 | 15 | 293 | 4.8 | 20.9 | 0.00 | 0.00 | 0.00 | 60 | 1013.2 |
| 20260505123001 | 15 | 342 | 6.4 | 30.6 | 0.00 | 0.00 | 0.00 | 61 | 1013.3 |
| 20260505121503 | 15 | 333 | 9.7 | 24.1 | 0.00 | 0.00 | 0.00 | 61 | 1013.3 |
| 20260505120047 | 15 | 352 | 12.9 | 24.1 | 0.00 | 0.00 | 0.00 | 64 | 1013.3 |
| 20260505114533 | 14 | 318 | 11.3 | 24.1 | 0.00 | 0.00 | 0.00 | 64 | 1013.3 |
| 20260505113033 | 14 | 356 | 6.4 | 17.7 | 0.00 | 0.00 | 0.00 | 66 | 1013.4 |
| 20260505111517 | 13 | 23 | 9.7 | 19.3 | 0.00 | 0.00 | 0.00 | 65 | 1013.4 |
| 20260505110109 | 13 | 316 | 3.2 | 19.3 | 0.00 | 0.00 | 0.00 | 67 | 1013.4 |
| 20260505101545 | 12 | 13 | 8.0 | 24.1 | 0.00 | 0.00 | 0.00 | 71 | 1013.7 |
| 20260505100005 | 12 | 309 | 11.3 | 22.5 | 0.00 | 0.00 | 0.00 | 74 | 1013.8 |
| 20260505094503 | 11 | 285 | 6.4 | 20.9 | 0.00 | 0.00 | 0.00 | 74 | 1013.9 |
| 20260505093055 | 11 | 353 | 12.9 | 25.7 | 0.00 | 0.00 | 0.00 | 75 | 1013.9 |
| 20260505091606 | 10 | 316 | 8.0 | 19.3 | 0.00 | 0.00 | 0.00 | 76 | 1013.9 |
| 20260505090031 | 10 | 23 | 9.7 | 24.1 | 0.00 | 0.00 | 0.00 | 76 | 1013.8 |
| 20260505084531 | 10 | 11 | 8.0 | 20.9 | 0.00 | 0.00 | 0.00 | 77 | 1013.9 |
| 20260505083002 | 9 | 314 | 4.8 | 12.9 | 0.00 | 0.00 | 0.00 | 76 | 1013.9 |
| 20260505081503 | 9 | 296 | 4.8 | 20.9 | 0.00 | 0.00 | 0.00 | 75 | 1014.0 |
| 20260505080052 | 9 | 311 | 9.7 | 22.5 | 0.00 | 0.00 | 0.00 | 75 | 1014.0 |
| 20260505074543 | 8 | 338 | 6.4 | 20.9 | 0.00 | 0.00 | 0.00 | 75 | 1014.0 |
| 20260505073038 | 8 | 288 | 8.0 | 16.1 | 0.00 | 0.00 | 0.00 | 75 | 1014.0 |
| 20260505071530 | 8 | 302 | 6.4 | 20.9 | 0.00 | 0.00 | 0.00 | 75 | 1014.1 |
| 20260505070100 | 8 | 303 | 9.7 | 19.3 | 0.00 | 0.00 | 0.00 | 76 | 1014.1 |
| 20260505064606 | 8 | 305 | 6.4 | 17.7 | 0.00 | 0.00 | 0.00 | 76 | 1014.3 |
| 20260505063112 | 8 | 291 | 6.4 | 16.1 | 0.00 | 0.00 | 0.00 | 76 | 1014.2 |
| 20260505061557 | 8 | 359 | 6.4 | 16.1 | 0.00 | 0.00 | 0.00 | 76 | 1014.2 |
| 20260505060033 | 8 | 318 | 8.0 | 16.1 | 0.00 | 0.00 | 0.00 | 76 | 1014.3 |
| 20260505054539 | 8 | 304 | 6.4 | 14.5 | 0.00 | 0.00 | 0.00 | 76 | 1014.3 |
| 20260505053034 | 8 | 290 | 3.2 | 12.9 | 0.00 | 0.00 | 0.00 | 76 | 1014.3 |
| 20260505051524 | 9 | 335 | 4.8 | 12.9 | 0.00 | 0.00 | 0.00 | 76 | 1014.3 |
| 20260505041558 | 9 | 307 | 6.4 | 16.1 | 0.00 | 0.00 | 0.00 | 76 | 1013.9 |
| 20260505040036 | 9 | 338 | 4.8 | 16.1 | 0.00 | 0.00 | 0.00 | 76 | 1013.8 |
| 20260505034527 | 9 | 311 | 4.8 | 17.7 | 0.00 | 0.00 | 0.00 | 76 | 1013.9 |
| 20260505033019 | 9 | 349 | 6.4 | 16.1 | 0.00 | 0.00 | 0.00 | 77 | 1014.0 |
| 20260505031608 | 10 | 331 | 6.4 | 14.5 | 0.00 | 0.00 | 0.00 | 77 | 1014.1 |
| 20260505030034 | 10 | 307 | 8.0 | 12.9 | 0.00 | 0.00 | 0.00 | 77 | 1014.2 |
| 20260505024538 | 10 | 312 | 6.4 | 11.3 | 0.00 | 0.00 | 0.00 | 77 | 1014.2 |
| 20260505023024 | 10 | 334 | 4.8 | 14.5 | 0.00 | 0.00 | 0.00 | 77 | 1014.2 |
| 20260505021521 | 10 | 335 | 4.8 | 12.9 | 0.00 | 0.00 | 0.00 | 77 | 1014.3 |
| 20260505020042 | 10 | 335 | 6.4 | 14.5 | 0.00 | 0.00 | 0.00 | 77 | 1014.3 |
| 20260505014555 | 10 | 328 | 4.8 | 9.7 | 0.00 | 0.00 | 0.00 | 77 | 1014.3 |
| 20260505013020 | 10 | 4 | 6.4 | 12.9 | 0.00 | 0.00 | 0.00 | 77 | 1014.5 |
| 20260505011515 | 10 | 360 | 8.0 | 12.9 | 0.00 | 0.00 | 0.00 | 76 | 1014.5 |
| 20260505010039 | 10 | 321 | 4.8 | 11.3 | 0.00 | 0.00 | 0.00 | 77 | 1014.6 |
| 20260505004537 | 10 | 329 | 6.4 | 11.3 | 0.00 | 0.00 | 0.00 | 77 | 1014.7 |
| 20260505003016 | 10 | 298 | 6.4 | 9.7 | 0.00 | 0.00 | 0.00 | 77 | 1014.7 |
| 20260505001509 | 10 | 311 | 4.8 | 11.3 | 0.00 | 0.00 | 0.00 | 77 | 1014.9 |
| 20260505000050 | 10 | 301 | 3.2 | 8.0 | 0.00 | 0.00 | 0.00 | 77 | 1014.9 |
| 20260504234533 | 10 | 359 | 4.8 | 8.0 | 0.00 | 0.00 | 0.00 | 77 | 1015.0 |
| 20260504233006 | 10 | 9 | 6.4 | 9.7 | 0.00 | 0.00 | 0.00 | 78 | 1014.8 |
| 20260504231502 | 10 | 6 | 4.8 | 8.0 | 0.00 | 0.00 | 0.00 | 78 | 1014.8 |
| 20260504230042 | 10 | 16 | 4.8 | 9.7 | 0.00 | 0.00 | 0.00 | 78 | 1014.9 |
| 20260504224521 | 10 | 25 | 8.0 | 12.9 | 0.00 | 0.00 | 0.00 | 78 | 1014.9 |
| 20260504223027 | 10 | 8 | 6.4 | 11.3 | 0.00 | 0.00 | 0.00 | 78 | 1015.0 |
| 20260504221516 | 11 | 48 | 6.4 | 12.9 | 0.00 | 0.00 | 0.00 | 77 | 1014.9 |
| 20260504220046 | 11 | 23 | 6.4 | 11.3 | 0.00 | 0.00 | 0.00 | 77 | 1015.0 |
| 20260504214543 | 11 | 27 | 6.4 | 11.3 | 0.00 | 0.00 | 0.00 | 77 | 1015.0 |
| 20260504213049 | 11 | 15 | 4.8 | 14.5 | 0.00 | 0.00 | 0.00 | 77 | 1015.2 |
| 20260504211534 | 11 | 13 | 6.4 | 16.1 | 0.00 | 0.00 | 0.00 | 77 | 1015.1 |
| 20260504210002 | 11 | 27 | 9.7 | 16.1 | 0.00 | 0.00 | 0.00 | 77 | 1015.1 |
| 20260504204512 | 11 | 37 | 8.0 | 17.7 | 0.00 | 0.00 | 0.00 | 76 | 1015.1 |
| 20260504203109 | 11 | 55 | 8.0 | 16.1 | 0.00 | 0.00 | 0.00 | 76 | 1015.0 |
| 20260504201600 | 12 | 38 | 8.0 | 16.1 | 0.00 | 0.00 | 0.00 | 76 | 1015.0 |